Location: Colle San Luigi
(43.5500°N, 13.4167°E)
Time: 22:45:35
(UTC+00:00)

STARLINK-1269 - Pass Details

Date: 09 April 2020
Orbit: 548 x 551 km, 53.0° (Epoch: 05 June)

Event Time Altitude Azimuth Distance (km) Brightness Sun altitude
Rises 19:35:50 0° 306° (NW) 2,728 8.8 -19.7°
Reaches altitude 10° 19:38:08 10° 311° (NW) 1,832 7.5 -20.0°
Maximum altitude 19:42:12 51° 29° (NNE) 697 4.1 -20.6°
Enters shadow 19:42:53 45° 63° (ENE) 754 4.0 -20.7°
